Weather Roundup
Issued by NWS Chicago, IL

Home | Current Version | Previous Version | Graphics & Text | Print | Product List | Glossary On
Versions: 1 2 3 4 5 6 7 8 9 10 11 12 13 14 15 16 17 18 19 20 21 22 23 24 25 26 27 28 29 30 31 32 33 34 35 36 37 38 39 40 41 42 43 44 45 46 47 48 49 50
000
NZUS59 KLOT 211158
HRRLOT

CHICAGO AREA WEATHER ROUNDUP
NATIONAL WEATHER SERVICE CHICAGO/ROMEOVILLE IL
700 AM CDT SUN SEP 21 2014

NOTE: "FAIR" INDICATES FEW OR NO CLOUDS BELOW 12,000 FEET WITH NO
SIGNIFICANT WEATHER AND/OR OBSTRUCTIONS TO VISIBILITY.

* THESE STATIONS ARE NOT UNDER NWS QUALITY CONTROL. THEY ALSO MAY NOT
  REPORT WEATHER SUCH AS PRECIPITATION OR FOG.

ILZ005-006-012>014-019>023-211300-
NORTHEAST ILLINOIS

CITY           SKY/WX    TMP DP  RH WIND       PRES   REMARKS
OHARE          PTCLDY    58  51  78 W14G24    29.79S
6HR MIN TEMP:  58; 6HR MAX TEMP:  66; 6HR PCP: TRACE;

MIDWAY         PTCLDY    60  52  74 W13G22    29.81R
6HR MIN TEMP:  59; 6HR MAX TEMP:  69;

AURORA         CLEAR     56  51  84 W15       29.84R
6HR MIN TEMP:  55; 6HR MAX TEMP:  65;

WAUKEGAN       PTCLDY    56  50  80 W8        29.76R
6HR MIN TEMP:  56; 6HR MAX TEMP:  64;

DUPAGE AIRPORT CLEAR     55  51  86 W14       29.82R
WHEELING       CLEAR     59  50  72 W14G23    29.80R
6HR MIN TEMP:  59; 6HR MAX TEMP:  69; 6HR PCP: TRACE;

NORTHERLY IS     N/A     60  50  69 W6          N/A
$$

WIZ051-052-058>065-066-070>072-211300-
SOUTHEAST WISCONSIN

CITY           SKY/WX    TMP DP  RH WIND       PRES   REMARKS
MILWAUKEE      MOCLDY    57  49  74 W14       29.73R
6HR MIN TEMP:  57; 6HR MAX TEMP:  63;

WAUKESHA       CLOUDY    54  50  87 W15       29.75R
$$

INZ001>003-010>013-019-020-211300-
NORTHWEST INDIANA

CITY           SKY/WX    TMP DP  RH WIND       PRES   REMARKS
GARY*          CLEAR     59  54  82 W12       29.82R
MICHIGAN CITY* NOT AVBL
RENSSELAER*    NOT AVBL
$$

LMZ740>746-211300-
SOUTHERN LAKE MICHIGAN

STATION/POSITION TIME  SKY/WX   TEMP WIND        PRES    VSBY
                                AIR  DIR/SP/G
                 (UTC)          (F)  (DEG/KT/KT) (MB)    (MI)
HARRISON CRIB    1100            60  280/ 18/ 24   N/A
BURNHAM HARBOR   1100            60  270/  7/ 13   N/A
CALUMET HARBOR   1100            59  250/  4/  8 1008.2R
BURNS HARBOR     NOT AVBL
MICHIGAN CITY    1100            62  260/ 27/ 31   N/A
$$

ABBREVIATIONS USED IN REMARKS
   TC - TEMPERATURE IN CELSIUS
  WCI - WIND CHILL INDEX
   HX - HEAT INDEX
  VSB - VISIBILITY
$$


USA.gov is the U.S. government's official web portal to all federal, state and local government web resources and services.